User: anonymous   Login
Location: Boitzum
(52.1496°N, 9.6943°E)
Time: 12:23:12
(UTC+00:00)
Language:

Meteor 2-13 Rocket - Orbit

View from above orbital plane
View from above orbital plane
View from above satellite
View from above satellite

Ground track
Ground track

The orbit is defined by the following mean orbital elements,

1 16409U          26066.15102431 +.00000000 +00000-0 +38701-4 0 00003
2 16409  82.5416 343.6146 0016237  81.0125 279.2872 13.84923302    03
Epoch (UTC): 07 March 2026 03:37:28
Eccentricity: 0.0016237
inclination: 82.5416°
perigee height: 935 km
apogee height: 958 km
right ascension of ascending node: 343.6146°
argument of perigee: 81.0125°
revolutions per day: 13.84923302
mean anomaly at epoch: 279.2872°

The dashed part of the orbit path shows where the satellite is in the earth's shadow,  

DLR